Weather History for Eindhoven, Netherlands

Change the Weather History Date:

Saturday, December 29, 2012

  Actual Average Record
Temperature  
Mean Temperature 50 °F -  
Max Temperature 54 °F 41 °F 54 °F (2012)
Min Temperature 46 °F 31 °F 10 °F (1996)
Degree Days  
Heating Degree Days 15    
Moisture  
Dew Point 47 °F    
Average Humidity 84    
Maximum Humidity 100    
Minimum Humidity 61    
Precipitation  
Precipitation 0.16 in - - ()
Sea Level Pressure  
Sea Level Pressure 29.87 in    
Wind  
Wind Speed 12 mph ()    
Max Wind Speed 21 mph    
Max Gust Speed 24 mph    
Visibility 6.3 miles    
Events Rain    
Averages and records for this station are not official NWS values.
T = Trace of Precipitation, MM = Missing Value Source: Averaged Metar Reports

Daily Weather History Graph

Daily Weather History Graph

Search for Another Location

Airport:

Trip Planner

Search our weather history database for the weather conditions in past years. The results will help you decide how hot, cold, wet, or windy it might be!

Date:

Astronomy

Dec. 29, 2012 Rise Set
Actual Time 8:43 AM CET 4:37 PM CET
Civil Twilight 8:03 AM CET 5:17 PM CET
Nautical Twilight 7:20 AM CET 6:00 PM CET
Astronomical Twilight 6:40 AM CET 6:41 PM CET
Moon 6:07 PM CET (12/29) 8:57 AM CET (12/29)
Length of Visible Light 9h 13m
Length of Day
7h 53m
Full, 99% of the Moon is Illuminated
Dec 29
Full
Jan 5
Last Quarter
Jan 11
New
Jan 19
First Quarter
Jan 27
Full

Hourly Weather History & Observations

Time (CET) Temp. Dew Point Humidity Pressure Visibility Wind Dir Wind Speed Gust Speed Precip Events Conditions
12:25 AM 50.0 °F 48.2 °F 94% 30.09 in 6.2 mi SSW 11.5 mph - N/A   Overcast
12:55 AM 50.0 °F 48.2 °F 94% 30.06 in 6.2 mi South 13.8 mph - N/A   Overcast
1:25 AM 50.0 °F 50.0 °F 100% 30.06 in 6.2 mi South 12.7 mph - N/A   Overcast
1:55 AM 50.0 °F 50.0 °F 100% 30.04 in 6.2 mi South 13.8 mph - N/A   Overcast
2:25 AM 50.0 °F 50.0 °F 100% 30.04 in 6.2 mi South 11.5 mph - N/A   Overcast
2:55 AM 50.0 °F 48.2 °F 94% 30.04 in 6.2 mi South 11.5 mph - N/A   Mostly Cloudy
3:25 AM 50.0 °F 48.2 °F 94% 30.04 in 6.2 mi South 12.7 mph - N/A   Mostly Cloudy
3:55 AM 50.0 °F 48.2 °F 94% 30.04 in 6.2 mi South 11.5 mph - N/A   Mostly Cloudy
4:00 AM 50 °F 49 °F 93% 30.04 in 16 mi South 11.2 mph - -   Scattered Clouds
4:25 AM 50.0 °F 48.2 °F 94% 30.01 in 6.2 mi South 10.4 mph - N/A   Mostly Cloudy
4:55 AM 50.0 °F 48.2 °F 94% 30.01 in 6.2 mi South 10.4 mph - N/A   Partly Cloudy
5:25 AM 50.0 °F 48.2 °F 94% 30.01 in 6.2 mi South 11.5 mph - N/A   Mostly Cloudy
5:55 AM 50.0 °F 48.2 °F 94% 30.01 in 6.2 mi South 9.2 mph - N/A   Overcast
6:25 AM 50.0 °F 48.2 °F 94% 29.98 in 6.2 mi South 10.4 mph - N/A   Overcast
6:55 AM 50.0 °F 48.2 °F 94% 29.98 in 6.2 mi South 10.4 mph - N/A   Overcast
7:00 AM 51 °F 48 °F 87% 29.99 in 22 mi South 11.2 mph - -   Partly Cloudy
7:20 AM 51.8 °F 48.2 °F 88% 29.98 in 6.2 mi South 11.5 mph - N/A   Overcast
7:25 AM 50.0 °F 48.2 °F 94% 29.98 in 6.2 mi South 11.5 mph - N/A   Overcast
7:55 AM 50.0 °F 48.2 °F 94% 29.98 in 6.2 mi South 10.4 mph - N/A   Overcast
8:25 AM 51.8 °F 48.2 °F 88% 29.98 in 6.2 mi South 11.5 mph - N/A   Overcast
8:55 AM 50.0 °F 48.2 °F 94% 29.98 in 6.2 mi South 10.4 mph - N/A   Overcast
9:25 AM 50.0 °F 48.2 °F 94% 29.95 in 6.2 mi South 10.4 mph - N/A   Scattered Clouds
9:55 AM 50.0 °F 46.4 °F 87% 29.95 in 6.2 mi South 9.2 mph - N/A   Overcast
10:00 AM 50 °F 47 °F 86% 29.95 in 25 mi South 11.2 mph - -   Overcast
10:25 AM 50.0 °F 46.4 °F 87% 29.92 in 6.2 mi South 12.7 mph - N/A   Overcast
10:55 AM 51.8 °F 48.2 °F 88% 29.92 in 6.2 mi South 10.4 mph - N/A   Overcast
11:25 AM 51.8 °F 48.2 °F 88% 29.89 in 6.2 mi South 12.7 mph - N/A   Overcast
11:55 AM 51.8 °F 48.2 °F 88% 29.89 in 6.2 mi South 12.7 mph - N/A   Overcast
12:25 PM 51.8 °F 46.4 °F 82% 29.86 in 6.2 mi South 12.7 mph - N/A   Overcast
12:55 PM 53.6 °F 46.4 °F 77% 29.86 in 6.2 mi South 12.7 mph - N/A   Overcast
1:00 PM 53 °F 47 °F 73% 29.86 in 28 mi South 11.2 mph - -   Partly Cloudy
1:25 PM 53.6 °F 46.4 °F 77% 29.83 in 6.2 mi South 13.8 mph - N/A   Overcast
1:55 PM 53.6 °F 46.4 °F 77% 29.80 in 6.2 mi South 12.7 mph - N/A   Overcast
2:25 PM 53.6 °F 46.4 °F 77% 29.77 in 6.2 mi South 15.0 mph - N/A   Overcast
2:55 PM 53.6 °F 44.6 °F 72% 29.77 in 6.2 mi South 17.3 mph - N/A   Overcast
3:25 PM 53.6 °F 44.6 °F 72% 29.74 in 6.2 mi South 16.1 mph - N/A   Overcast
3:55 PM 53.6 °F 44.6 °F 72% 29.74 in 6.2 mi South 17.3 mph - N/A   Overcast
4:00 PM 53 °F 45 °F 65% 29.73 in 28 mi SSE 15.7 mph - -   Overcast
4:25 PM 53.6 °F 44.6 °F 72% 29.71 in 6.2 mi SSE 16.1 mph - N/A   Overcast
4:55 PM 53.6 °F 44.6 °F 72% 29.71 in 6.2 mi South 16.1 mph - N/A   Overcast
5:25 PM 51.8 °F 44.6 °F 76% 29.71 in 6.2 mi South 15.0 mph - N/A   Overcast
5:55 PM 53.6 °F 44.6 °F 72% 29.71 in 6.2 mi South 15.0 mph - N/A   Overcast
6:25 PM 53.6 °F 42.8 °F 67% 29.71 in 6.2 mi South 16.1 mph - N/A   Overcast
6:55 PM 53.6 °F 42.8 °F 67% 29.71 in 6.2 mi South 12.7 mph - N/A   Overcast
7:00 PM 53 °F 43 °F 61% 29.72 in 28 mi South 13.4 mph - -   Partly Cloudy
7:04 PM 53.6 °F 42.8 °F 67% 29.71 in 6.2 mi South 12.7 mph - N/A   Overcast
7:25 PM 51.8 °F 42.8 °F 71% 29.71 in 6.2 mi South 15.0 mph - N/A   Overcast
7:55 PM 51.8 °F 44.6 °F 76% 29.71 in 6.2 mi South 15.0 mph - N/A   Overcast
8:25 PM 53.6 °F 44.6 °F 72% 29.71 in 6.2 mi South 13.8 mph - N/A   Overcast
8:55 PM 53.6 °F 44.6 °F 72% 29.71 in 6.2 mi South 12.7 mph 24.2 mph N/A   Overcast
9:25 PM 51.8 °F 46.4 °F 82% 29.71 in 6.2 mi SSW 17.3 mph - N/A Rain Rain Showers
9:55 PM 50.0 °F 46.4 °F 87% 29.74 in 5.6 mi WSW 20.7 mph - N/A Rain Rain Showers
10:00 PM 49 °F 47 °F 90% 29.75 in 4 mi WSW 20.1 mph - - Rain Rain Showers
10:25 PM 50.0 °F 46.4 °F 87% 29.74 in 6.2 mi SW 13.8 mph - N/A   Overcast
10:55 PM 50.0 °F 48.2 °F 94% 29.74 in 6.2 mi SW 12.7 mph - N/A   Light Drizzle
11:25 PM 50.0 °F 46.4 °F 87% 29.77 in 6.2 mi West 11.5 mph - N/A Rain Light Rain
11:55 PM 48.2 °F 46.4 °F 93% 29.77 in 6.2 mi WSW 10.4 mph - N/A Rain Light Rain